Powrót do katalogu

STARLINK-3794

AktywnyŁącznośćVLEO
NORAD 52631·PAYLOAD·🇺🇸 United States

Wystrzelony May 14, 2022 z Cape Canaveral Space Force Station

Loading…

Następne Przeloty (najbliższe 24 godziny)

TLE

ŚwieżeSource: CelesTrak SupGP

Epoka: Sep 14, 2026, 21:14 UTC

1 52631C 22052AK  26257.88520833 -.00026723  00000+0 -78959-3 0  2576
2 52631  53.1575 126.2775 0001272  90.6611  16.5569 15.34401539    18

Śledź STARLINK-3794 w czasie rzeczywistym z AllMySat

Download on the App Store